Weather History for KN60 - November, 2013

Change the Weather History Date:

Wednesday, November 20, 2013

  Actual Average Record
Temperature  
Mean Temperature 18 °F -  
Max Temperature 24 °F 32 °F 61 °F (2001)
Min Temperature 11 °F 15 °F -4 °F (1996)
Degree Days  
Heating Degree Days 47    
Month to date heating degree days 667  
Moisture  
Dew Point 11 °F    
Average Humidity 81    
Maximum Humidity 88    
Minimum Humidity 73    
Precipitation  
Precipitation 0.16 in - - ()
Month to date precipitation 0.29  
Year to date precipitation 29.16  
Sea Level Pressure  
Sea Level Pressure 30.10 in    
Wind  
Wind Speed 15 mph (NNW)    
Max Wind Speed 22 mph    
Max Gust Speed 26 mph    
Averages and records for this station are not official NWS values.
T = Trace of Precipitation, MM = Missing Value Source: NWS Daily Summary

Daily Weather History Graph

Daily Weather History Graph

Search for Another Location

Airport or City:

Trip Planner

Search our weather history database for the weather conditions in past years. The results will help you decide how hot, cold, wet, or windy it might be!

Date:

Astronomy

Nov. 20, 2013 Rise Set
Actual Time 7:58 AM CST 5:03 PM CST
Civil Twilight 7:24 AM CST 5:37 PM CST
Nautical Twilight 6:46 AM CST 6:15 PM CST
Astronomical Twilight 6:10 AM CST 6:52 PM CST
Moon 7:48 PM CST (11/20) 10:25 AM CST (11/20)
Length of Visible Light 10h 13m
Length of Day
9h 04m
Waning Gibbous, 91% of the Moon is Illuminated
Nov 20
Waning Gibbous
Nov 25
Last Quarter
Dec 2
New
Dec 9
First Quarter
Dec 17
Full

Hourly Weather History & Observations

Time (CST) Temp. Windchill Dew Point Humidity Pressure Visibility Wind Dir Wind Speed Gust Speed Precip Events Conditions
12:52 AM 23.0 °F 10.6 °F 19.0 °F 85% 29.76 in - North 13.8 mph - N/A   Unknown
1:52 AM 21.9 °F 9.2 °F 18.0 °F 85% 29.79 in - NNW 13.8 mph - N/A   Unknown
2:52 AM 19.9 °F 6.2 °F 16.0 °F 85% 29.84 in - NNW 15.0 mph - N/A   Unknown
3:52 AM 19.0 °F 3.2 °F 14.0 °F 81% 29.88 in - NNW 19.6 mph 25.3 mph N/A   Unknown
4:52 AM 18.0 °F 4.2 °F 12.9 °F 81% 29.91 in - NNW 13.8 mph - N/A   Unknown
5:52 AM 19.0 °F 5.6 °F 14.0 °F 81% 29.93 in - NNW 13.8 mph - N/A   Unknown
6:52 AM 18.0 °F 3.1 °F 12.9 °F 81% 29.96 in - NNW 16.1 mph - N/A   Unknown
7:52 AM 19.0 °F 5.6 °F 12.0 °F 74% 29.99 in - NNW 13.8 mph - N/A   Unknown
8:52 AM 18.0 °F 3.6 °F 10.9 °F 74% 30.02 in - North 15.0 mph - N/A   Unknown
9:52 AM 18.0 °F 3.6 °F 12.0 °F 78% 30.04 in - NNW 15.0 mph - N/A   Unknown
10:52 AM 18.0 °F 3.6 °F 10.9 °F 74% 30.05 in - NNW 15.0 mph - N/A   Unknown
11:52 AM 17.1 °F 5.8 °F 12.0 °F 81% 30.05 in - North 9.2 mph - N/A   Unknown
12:52 PM 16.0 °F 2.9 °F 12.0 °F 84% 30.04 in - North 11.5 mph 18.4 mph 0.02 in   Unknown
1:52 PM 16.0 °F 2.3 °F 12.9 °F 88% 30.08 in - NNW 12.7 mph - 0.04 in   Unknown
2:52 PM 16.0 °F -0.4 °F 12.0 °F 84% 30.12 in - North 18.4 mph - 0.02 in   Unknown
3:52 PM 14.0 °F -3.0 °F 10.9 °F 88% 30.15 in - North 18.4 mph - 0.02 in   Unknown
4:52 PM 12.0 °F -5.1 °F 9.0 °F 88% 30.20 in - NNW 17.3 mph - 0.02 in   Unknown
5:52 PM 10.9 °F -7.0 °F 8.1 °F 88% 30.25 in - NNW 18.4 mph - 0.04 in   Unknown
6:52 PM 10.9 °F -5.9 °F 7.0 °F 84% 30.28 in - NNW 16.1 mph - 0.04 in   Unknown
7:52 PM 10.0 °F -8.6 °F 7.0 °F 87% 30.32 in - NNW 19.6 mph - N/A   Unknown
8:52 PM 9.0 °F -11.4 °F 5.0 °F 84% 30.37 in - NNW 23.0 mph - N/A   Unknown
9:52 PM 9.0 °F -10.5 °F 3.9 °F 80% 30.40 in - NNW 20.7 mph - N/A   Unknown
10:52 PM 7.0 °F -13.1 °F 3.0 °F 84% 30.44 in - NNW 20.7 mph - N/A   Unknown
11:52 PM 6.1 °F -13.8 °F 1.0 °F 80% 30.48 in - NNW 19.6 mph - N/A   Unknown